When you browse on this site, cookies collect data to enhance your experience and personalize the content and advertising you see.
Visit our Privacy Policy to learn more. By continuing to use the site, you agree to this use of cookies and data.
  • In United Kingdom
  • List of Countries
  • For 7 days
  • Water Temperature
  • Satellite Maps
  • Weather Map
  • Weather Widgets
  • user-avatar
    Login

    Hourly Weather Blagoevgrad

    Today, 15 December, Saturday

    Time Temperature Precipitation Wind Pressure Humidity
    00:00 +5°C° 0 mm 2 mps 720 mmHg 93%
    01:00 +5°C° 0 mm 2 mps 720 mmHg 94%
    02:00 +5°C° 0 mm 2 mps 720 mmHg 93%
    03:00 +5°C° 0 mm 2 mps 720 mmHg 93%
    04:00 +5°C° 0 mm 2 mps 720 mmHg 93%
    05:00 +5°C° 0 mm 2 mps 720 mmHg 93%
    06:00 +5°C° 0 mm 2 mps 720 mmHg 93%
    07:00 +5°C° 0 mm 2 mps 720 mmHg 93%
    08:00 +5°C° 0 mm 2 mps 720 mmHg 93%
    09:00 +7°C° 0 mm 2 mps 720 mmHg 88%
    10:00 +8°C° 0 mm 2 mps 720 mmHg 83%
    11:00 +9°C° 0 mm 2 mps 720 mmHg 78%
    12:00 +10°C° 0.1 mm 3 mps 719 mmHg 76%
    13:00 +10°C° 0.1 mm 3 mps 719 mmHg 74%
    14:00 +11°C° 0.1 mm 3 mps 719 mmHg 72%
    15:00 +10°C° 0.1 mm 2 mps 719 mmHg 78%
    16:00 +9°C° 0.1 mm 2 mps 718 mmHg 83%
    17:00 +8°C° 0.1 mm 2 mps 718 mmHg 88%
    18:00 +8°C° 0 mm 2 mps 718 mmHg 89%
    19:00 +7°C° 0 mm 2 mps 718 mmHg 90%
    20:00 +7°C° 0 mm 2 mps 718 mmHg 91%
    21:00 +7°C° 0 mm 2 mps 718 mmHg 92%
    22:00 +7°C° 0 mm 2 mps 718 mmHg 92%
    23:00 +7°C° 0 mm 2 mps 718 mmHg 92%

    Tomorrow, 16 December, Sunday

    Time Temperature Precipitation Wind Pressure Humidity
    00:00 +7°C° 0 mm 2 mps 718 mmHg 92%
    01:00 +7°C° 0 mm 2 mps 718 mmHg 92%
    02:00 +7°C° 0 mm 2 mps 718 mmHg 92%
    03:00 +7°C° 0.1 mm 2 mps 718 mmHg 93%
    04:00 +7°C° 0.1 mm 2 mps 718 mmHg 93%
    05:00 +8°C° 0.1 mm 1 mps 717 mmHg 93%
    06:00 +8°C° 0.2 mm 1 mps 718 mmHg 93%
    07:00 +8°C° 0.2 mm 1 mps 718 mmHg 92%
    08:00 +8°C° 0.2 mm 1 mps 718 mmHg 92%
    09:00 +7°C° 0.5 mm 2 mps 718 mmHg 90%
    10:00 +8°C° 0.5 mm 2 mps 719 mmHg 88%
    11:00 +8°C° 0.5 mm 2 mps 719 mmHg 85%
    12:00 +7°C° 1 mm 2 mps 719 mmHg 86%
    13:00 +6°C° 1 mm 2 mps 719 mmHg 87%
    14:00 +6°C° 1 mm 2 mps 719 mmHg 88%
    15:00 +5°C° 0.6 mm 2 mps 719 mmHg 88%
    16:00 +5°C° 0.6 mm 2 mps 720 mmHg 88%
    17:00 +4°C° 0.6 mm 2 mps 720 mmHg 87%
    18:00 +4°C° 0.1 mm 2 mps 720 mmHg 88%
    19:00 +3°C° 0.1 mm 2 mps 721 mmHg 88%
    20:00 +2°C° 0.1 mm 2 mps 722 mmHg 88%
    21:00 +2°C° 0 mm 2 mps 722 mmHg 87%
    22:00 +2°C° 0 mm 2 mps 722 mmHg 86%
    23:00 +1°C° 0 mm 2 mps 722 mmHg 85%

    Day after tomorrow, 17 December, Monday

    Time Temperature Precipitation Wind Pressure Humidity
    00:00 +2°C° 0 mm 1 mps 722 mmHg 84%
    01:00 +2°C° 0 mm 1 mps 722 mmHg 83%
    02:00 +2°C° 0 mm 1 mps 722 mmHg 81%
    03:00 +2°C° 0 mm 1 mps 721 mmHg 80%
    04:00 +2°C° 0 mm 1 mps 721 mmHg 79%
    05:00 +2°C° 0 mm 1 mps 721 mmHg 77%
    06:00 +3°C° 0 mm 1 mps 721 mmHg 76%
    07:00 +3°C° 0 mm 1 mps 721 mmHg 75%
    08:00 +4°C° 0 mm 1 mps 721 mmHg 74%
    09:00 +5°C° 0 mm 1 mps 721 mmHg 72%
    10:00 +6°C° 0 mm 1 mps 721 mmHg 71%
    11:00 +8°C° 0 mm 1 mps 721 mmHg 69%
    12:00 +8°C° 0.1 mm 1 mps 721 mmHg 71%
    13:00 +8°C° 0.1 mm 1 mps 720 mmHg 72%
    14:00 +8°C° 0.1 mm 1 mps 720 mmHg 74%
    15:00 +7°C° 0.1 mm 1 mps 720 mmHg 75%
    16:00 +6°C° 0.1 mm 1 mps 720 mmHg 77%
    17:00 +5°C° 0.1 mm 0 mps 720 mmHg 78%
    18:00 +5°C° 0 mm 1 mps 720 mmHg 79%
    19:00 +5°C° 0 mm 1 mps 721 mmHg 80%
    20:00 +5°C° 0 mm 1 mps 721 mmHg 81%
    21:00 +5°C° 0 mm 1 mps 721 mmHg 82%
    22:00 +4°C° 0 mm 1 mps 721 mmHg 83%
    23:00 +4°C° 0 mm 1 mps 721 mmHg 84%

    18 December, Tuesday

    Time Temperature Precipitation Wind Pressure Humidity
    00:00 +4°C° 0.1 mm 1 mps 721 mmHg 85%
    01:00 +4°C° 0.1 mm 1 mps 721 mmHg 86%
    02:00 +3°C° 0.1 mm 2 mps 721 mmHg 87%
    03:00 +3°C° 0.3 mm 2 mps 721 mmHg 88%
    04:00 +3°C° 0.3 mm 2 mps 721 mmHg 88%
    05:00 +3°C° 0.3 mm 2 mps 721 mmHg 89%
    06:00 +2°C° 0.3 mm 2 mps 721 mmHg 89%
    07:00 +1°C° 0.3 mm 3 mps 722 mmHg 88%
    08:00 +1°C° 0.3 mm 3 mps 722 mmHg 88%
    09:00 +2°C° 0.2 mm 3 mps 722 mmHg 87%
    10:00 +2°C° 0.2 mm 3 mps 723 mmHg 85%
    11:00 +2°C° 0.2 mm 3 mps 723 mmHg 84%
    12:00 +2°C° 0.2 mm 3 mps 723 mmHg 83%
    13:00 +3°C° 0.2 mm 3 mps 723 mmHg 83%
    14:00 +3°C° 0.2 mm 3 mps 723 mmHg 82%
    15:00 +2°C° 0.1 mm 3 mps 723 mmHg 84%
    16:00 +2°C° 0.1 mm 3 mps 723 mmHg 85%
    17:00 +1°C° 0.1 mm 3 mps 723 mmHg 86%
    18:00 +1°C° 0.1 mm 3 mps 723 mmHg 87%
    19:00 +1°C° 0.1 mm 3 mps 724 mmHg 87%
    20:00 0°C° 0.1 mm 3 mps 724 mmHg 88%
    21:00 +1°C° 0.2 mm 2 mps 724 mmHg 88%
    22:00 +1°C° 0.2 mm 2 mps 724 mmHg 88%
    23:00 +1°C° 0.2 mm 2 mps 724 mmHg 88%

    19 December, Wednesday

    Time Temperature Precipitation Wind Pressure Humidity
    00:00 +1°C° 0.1 mm 2 mps 724 mmHg 88%
    01:00 -1°C° 0.1 mm 2 mps 724 mmHg 89%
    02:00 -1°C° 0.1 mm 2 mps 724 mmHg 89%
    03:00 -1°C° 0.1 mm 2 mps 724 mmHg 89%
    04:00 -1°C° 0.1 mm 2 mps 724 mmHg 89%
    05:00 -1°C° 0.1 mm 2 mps 724 mmHg 89%
    06:00 -1°C° 0.1 mm 2 mps 724 mmHg 89%
    07:00 -1°C° 0.1 mm 2 mps 724 mmHg 89%
    08:00 -2°C° 0.1 mm 2 mps 724 mmHg 89%
    09:00 +1°C° 0 mm 2 mps 724 mmHg 85%
    10:00 +2°C° 0 mm 2 mps 725 mmHg 81%
    11:00 +3°C° 0 mm 2 mps 725 mmHg 78%
    12:00 +3°C° 0 mm 2 mps 724 mmHg 77%
    13:00 +4°C° 0 mm 2 mps 724 mmHg 77%
    14:00 +4°C° 0 mm 2 mps 724 mmHg 76%
    15:00 +3°C° 0 mm 2 mps 724 mmHg 80%
    16:00 +2°C° 0 mm 2 mps 724 mmHg 83%
    17:00 +1°C° 0 mm 2 mps 724 mmHg 87%
    18:00 +1°C° 0 mm 1 mps 724 mmHg 87%
    19:00 +1°C° 0 mm 1 mps 725 mmHg 87%
    20:00 0°C° 0 mm 1 mps 725 mmHg 87%
    21:00 0°C° 0 mm 1 mps 725 mmHg 86%
    22:00 0°C° 0 mm 1 mps 725 mmHg 84%
    23:00 0°C° 0 mm 1 mps 725 mmHg 83%

    20 December, Thursday

    Time Temperature Precipitation Wind Pressure Humidity
    00:00 0°C° 0 mm 1 mps 725 mmHg 82%
    01:00 -1°C° 0 mm 1 mps 725 mmHg 81%
    02:00 -1°C° 0 mm 1 mps 725 mmHg 80%
    03:00 -1°C° 0 mm 1 mps 725 mmHg 79%
    04:00 -1°C° 0 mm 1 mps 725 mmHg 78%
    05:00 -1°C° 0 mm 1 mps 725 mmHg 77%
    06:00 -1°C° 0 mm 1 mps 726 mmHg 77%
    07:00 0°C° 0 mm 1 mps 726 mmHg 77%
    08:00 0°C° 0 mm 1 mps 726 mmHg 77%
    09:00 +1°C° 0 mm 1 mps 726 mmHg 75%
    10:00 +3°C° 0 mm 1 mps 726 mmHg 72%
    11:00 +4°C° 0 mm 2 mps 727 mmHg 70%
    12:00 +5°C° 0 mm 2 mps 726 mmHg 70%
    13:00 +5°C° 0 mm 2 mps 726 mmHg 70%
    14:00 +6°C° 0 mm 2 mps 726 mmHg 71%
    15:00 +5°C° 0 mm 2 mps 726 mmHg 76%
    16:00 +4°C° 0 mm 2 mps 726 mmHg 82%
    17:00 +3°C° 0 mm 1 mps 726 mmHg 87%
    18:00 +3°C° 0 mm 1 mps 726 mmHg 88%
    19:00 +3°C° 0 mm 1 mps 726 mmHg 90%
    20:00 +2°C° 0 mm 1 mps 726 mmHg 91%
    21:00 +2°C° 0 mm 1 mps 726 mmHg 91%
    22:00 +2°C° 0 mm 1 mps 726 mmHg 91%
    23:00 +2°C° 0 mm 1 mps 726 mmHg 91%
    Show more